User: anonymous   Login
Location: Caltech
(34.1382°N, 118.1253°W)
Time: 05:46:36
(UTC-07:00)
Language:

Cosmos 2084 - Orbit

View from above orbital plane
View from above orbital plane
View from above satellite
View from above satellite

Ground track
Ground track

The orbit data is extracted from the following two-line orbital elements,

1 20663U 90055A   15182.15696333  .00000539  00000-0  70293-4 0  9991
2 20663 062.7950 099.4705 0081280 013.3807 346.9415 14.90543036352886
Epoch (UTC): 01 July 2015 03:46:01
Eccentricity: 0.0081280
inclination: 62.7950°
perigee height: 539 km
apogee height: 653 km
right ascension of ascending node: 99.4705°
argument of perigee: 13.3807°
revolutions per day: 14.90543036
mean anomaly at epoch: 346.9415°
orbit number at epoch: 35288

The dashed part of the orbit path shows where the satellite is in the earth's shadow,  

DLR